Weather History for Custer, SD

Change the Weather History Date:

Wednesday, May 8, 2013

  Actual Average Record
Temperature  
Mean Temperature 51 °F 46 °F  
Max Temperature 64 °F 58 °F 78 °F (1970)
Min Temperature 37 °F 34 °F 20 °F (1944)
Degree Days  
Heating Degree Days 14 19  
Month to date heating degree days 197 160  
Since 1 July heating degree days 7801 7810  
Cooling Degree Days 0 0  
Month to date cooling degree days 0 0  
Year to date cooling degree days 0 0  
Moisture  
Dew Point 34 °F    
Average Humidity 61    
Maximum Humidity 92    
Minimum Humidity 30    
Precipitation  
Precipitation 0.00 in 0.08 in 0.98 in (1993)
Month to date precipitation T 0.75  
Year to date precipitation 5.30 4.74  
Sea Level Pressure  
Sea Level Pressure 29.96 in    
Wind  
Wind Speed 9 mph (NNE)    
Max Wind Speed 21 mph    
Max Gust Speed 28 mph    
Visibility 10 miles    
Events      
T = Trace of Precipitation, MM = Missing Value Source: NWS Daily Summary

Daily Weather History Graph

Daily Weather History Graph

Search for Another Location

Airport:

Trip Planner

Search our weather history database for the weather conditions in past years. The results will help you decide how hot, cold, wet, or windy it might be!

Date:

Astronomy

May. 08, 2013 Rise Set
Actual Time 5:36 AM MDT 8:05 PM MDT
Civil Twilight 5:04 AM MDT 8:38 PM MDT
Nautical Twilight 4:24 AM MDT 9:18 PM MDT
Astronomical Twilight 3:38 AM MDT 10:04 PM MDT
Moon 4:48 AM MDT (5/8) 7:04 PM MDT (5/8)
Length of Visible Light 15h 33m
Length of Day
14h 28m
Waning Crescent, 2% of the Moon is Illuminated
May 8
Waning Crescent
May 9
New
May 17
First Quarter
May 24
Full
May 31
Last Quarter

Hourly Weather History & Observations

Time (MDT) Temp. Windchill Dew Point Humidity Pressure Visibility Wind Dir Wind Speed Gust Speed Precip Events Conditions
12:53 AM 41.0 °F - 37.0 °F 86% 29.88 in 10.0 mi Calm Calm - N/A   Partly Cloudy
1:53 AM 39.0 °F 36.8 °F 36.0 °F 89% 29.90 in 10.0 mi NW 3.5 mph - N/A   Partly Cloudy
2:53 AM 37.9 °F 34.4 °F 35.1 °F 89% 29.89 in 10.0 mi NW 4.6 mph - N/A   Clear
3:53 AM 39.9 °F 37.8 °F 34.0 °F 79% 29.87 in 10.0 mi WNW 3.5 mph - N/A   Clear
4:53 AM 39.0 °F 35.7 °F 33.1 °F 79% 29.87 in 10.0 mi NNW 4.6 mph - N/A   Clear
5:53 AM 39.0 °F 36.8 °F 32.0 °F 76% 29.89 in 10.0 mi North 3.5 mph - N/A   Clear
6:53 AM 48.9 °F - 36.0 °F 61% 29.88 in 10.0 mi NNE 4.6 mph - N/A   Clear
7:53 AM 54.0 °F - 37.9 °F 55% 29.90 in 10.0 mi ENE 9.2 mph - N/A   Clear
8:53 AM 55.9 °F - 37.9 °F 51% 29.94 in 10.0 mi East 13.8 mph - N/A   Clear
9:53 AM 57.9 °F - 37.0 °F 46% 29.96 in 10.0 mi ENE 11.5 mph - N/A   Clear
10:53 AM 60.1 °F - 35.1 °F 39% 29.98 in 10.0 mi ENE 16.1 mph 21.9 mph N/A   Scattered Clouds
11:53 AM 62.1 °F - 35.1 °F 37% 29.98 in 10.0 mi NE 10.4 mph 21.9 mph N/A   Scattered Clouds
12:53 PM 61.0 °F - 33.1 °F 35% 29.99 in 10.0 mi NE 15.0 mph 21.9 mph N/A   Partly Cloudy
1:53 PM 62.1 °F - 34.0 °F 35% 29.99 in 10.0 mi NE 11.5 mph 25.3 mph N/A   Scattered Clouds
2:53 PM 62.1 °F - 30.0 °F 30% 30.00 in 10.0 mi North 15.0 mph 23.0 mph N/A   Partly Cloudy
3:53 PM 63.0 °F - 33.1 °F 33% 29.98 in 10.0 mi NE 15.0 mph 19.6 mph N/A   Clear
4:53 PM 62.1 °F - 32.0 °F 32% 29.99 in 10.0 mi NE 10.4 mph - N/A   Clear
5:53 PM 57.9 °F - 30.9 °F 36% 30.02 in 10.0 mi NE 13.8 mph 24.2 mph N/A   Scattered Clouds
6:53 PM 57.9 °F - 30.9 °F 36% 29.99 in 10.0 mi NE 9.2 mph - N/A   Clear
7:53 PM 54.0 °F - 32.0 °F 43% 30.01 in 10.0 mi NE 6.9 mph - N/A   Clear
8:53 PM 51.1 °F - 33.1 °F 50% 30.02 in 10.0 mi NE 4.6 mph - N/A   Clear
9:53 PM 50.0 °F - 32.0 °F 50% 30.04 in 10.0 mi NE 6.9 mph - N/A   Mostly Cloudy
10:53 PM 48.0 °F - 33.1 °F 56% 30.04 in 10.0 mi NE 6.9 mph - N/A   Clear
11:53 PM 48.0 °F - 33.1 °F 56% 30.04 in 10.0 mi NE 8.1 mph - N/A   Partly Cloudy